Weather History for KRZL - December, 2013

Change the Weather History Date:

Thursday, December 5, 2013

  Actual Average (KVPZ) Record (KVPZ)
Temperature  
Mean Temperature 34 °F 32 °F  
Max Temperature 44 °F 38 °F 69 °F (2001)
Min Temperature 24 °F 25 °F 7 °F (2008)
Degree Days  
Heating Degree Days 31 33  
Month to date heating degree days 163  
Since 1 July heating degree days 1421  
Cooling Degree Days 0 0  
Month to date cooling degree days 0  
Year to date cooling degree days 713  
Moisture  
Dew Point 25 °F    
Average Humidity 80    
Maximum Humidity 100    
Minimum Humidity 69    
Precipitation  
Precipitation 0.00 in 0.09 in 1.26 in (1999)
Month to date precipitation 0.44  
Year to date precipitation 35.77  
Sea Level Pressure  
Sea Level Pressure 30.04 in    
Wind  
Wind Speed 15 mph (West)    
Max Wind Speed 23 mph    
Max Gust Speed 29 mph    
Visibility 10 miles    
Events      
T = Trace of Precipitation, MM = Missing Value Source: NWS Daily Summary

Daily Weather History Graph

Daily Weather History Graph

Search for Another Location

Airport or City:

Trip Planner

Search our weather history database for the weather conditions in past years. The results will help you decide how hot, cold, wet, or windy it might be!

Date:

Astronomy

Dec. 05, 2013 Rise Set
Actual Time 6:58 AM CST 4:20 PM CST
Civil Twilight 6:27 AM CST 4:51 PM CST
Nautical Twilight 5:53 AM CST 5:25 PM CST
Astronomical Twilight 5:19 AM CST 5:58 PM CST
Moon 9:17 AM CST (12/5) 7:41 PM CST (12/5)
Length of Visible Light 10h 23m
Length of Day
9h 22m
Waxing Crescent, 11% of the Moon is Illuminated
Dec 5
Waxing Crescent
Dec 9
First Quarter
Dec 17
Full
Dec 25
Last Quarter
Jan 1
New

Hourly Weather History & Observations

Time (CST) Temp. Windchill Dew Point Humidity Pressure Visibility Wind Dir Wind Speed Gust Speed Precip Events Conditions
12:15 AM 44.6 °F 37.8 °F 41.0 °F 87% 29.73 in 10.0 mi WSW 15.0 mph 23.0 mph N/A   Overcast
12:35 AM 42.8 °F 34.3 °F 39.2 °F 87% 29.74 in 10.0 mi West 19.6 mph 26.5 mph N/A   Overcast
12:55 AM 42.8 °F 33.5 °F 37.4 °F 81% 29.74 in 10.0 mi West 23.0 mph 28.8 mph N/A   Overcast
1:15 AM 41.0 °F 31.9 °F 37.4 °F 87% 29.75 in 10.0 mi WSW 19.6 mph 26.5 mph N/A   Overcast
1:35 AM 41.0 °F 32.2 °F 37.4 °F 87% 29.76 in 10.0 mi West 18.4 mph 23.0 mph N/A   Overcast
1:55 AM 39.2 °F 31.6 °F 35.6 °F 87% 29.78 in 10.0 mi West 12.7 mph - N/A   Overcast
2:15 AM 37.4 °F 26.9 °F 35.6 °F 93% 29.80 in 10.0 mi West 20.7 mph 28.8 mph N/A   Overcast
2:35 AM 37.4 °F 27.2 °F 33.8 °F 87% 29.81 in 10.0 mi West 19.6 mph 24.2 mph N/A   Overcast
2:55 AM 35.6 °F 26.2 °F 33.8 °F 93% 29.83 in 10.0 mi WSW 15.0 mph 20.7 mph N/A   Overcast
3:15 AM 35.6 °F 25.2 °F 33.8 °F 93% 29.83 in 10.0 mi WSW 18.4 mph 25.3 mph N/A   Overcast
3:35 AM 35.6 °F 25.2 °F 32.0 °F 87% 29.84 in 10.0 mi West 18.4 mph 24.2 mph N/A   Overcast
3:55 AM 33.8 °F 23.5 °F 32.0 °F 93% 29.85 in 10.0 mi West 16.1 mph 23.0 mph N/A   Overcast
4:15 AM 33.8 °F 23.2 °F 32.0 °F 93% 29.86 in 10.0 mi West 17.3 mph 26.5 mph N/A   Overcast
4:35 AM 32.0 °F 21.6 °F 32.0 °F 100% 29.87 in 10.0 mi West 15.0 mph 25.3 mph N/A   Overcast
4:55 AM 32.0 °F 21.6 °F 30.2 °F 93% 29.87 in 10.0 mi West 15.0 mph 18.4 mph N/A   Overcast
5:15 AM 32.0 °F 21.6 °F 30.2 °F 93% 29.88 in 10.0 mi West 15.0 mph - N/A   Overcast
5:35 AM 32.0 °F 23.6 °F 30.2 °F 93% 29.90 in 10.0 mi West 10.4 mph - N/A   Overcast
5:55 AM 32.0 °F 23.0 °F 30.2 °F 93% 29.92 in 10.0 mi West 11.5 mph 18.4 mph N/A   Overcast
6:15 AM 32.0 °F 20.8 °F 28.4 °F 87% 29.94 in 10.0 mi West 17.3 mph 26.5 mph N/A   Overcast
6:35 AM 32.0 °F 21.2 °F 28.4 °F 87% 29.94 in 10.0 mi West 16.1 mph 23.0 mph N/A   Overcast
6:55 AM 32.0 °F 20.5 °F 28.4 °F 87% 29.96 in 10.0 mi WSW 18.4 mph 24.2 mph N/A   Overcast
7:15 AM 30.2 °F 18.5 °F 28.4 °F 93% 29.97 in 10.0 mi WSW 17.3 mph 23.0 mph N/A   Overcast
7:35 AM 30.2 °F 19.3 °F 28.4 °F 93% 29.98 in 10.0 mi WSW 15.0 mph - N/A   Overcast
7:55 AM 30.2 °F 21.3 °F 28.4 °F 93% 29.97 in 10.0 mi West 10.4 mph 20.7 mph N/A   Overcast
8:15 AM 30.2 °F 20.2 °F 26.6 °F 86% 29.99 in 10.0 mi West 12.7 mph - N/A   Overcast
8:35 AM 30.2 °F 19.3 °F 26.6 °F 86% 30.00 in 10.0 mi West 15.0 mph 21.9 mph N/A   Mostly Cloudy
8:55 AM 30.2 °F 20.2 °F 26.6 °F 86% 30.02 in 10.0 mi West 12.7 mph - N/A   Overcast
9:15 AM 30.2 °F 18.1 °F 26.6 °F 86% 30.02 in 10.0 mi West 18.4 mph - N/A   Overcast
9:35 AM 30.2 °F 18.1 °F 26.6 °F 86% 30.04 in 10.0 mi West 18.4 mph - N/A   Overcast
9:55 AM 30.2 °F 18.5 °F 24.8 °F 80% 30.05 in 10.0 mi West 17.3 mph 25.3 mph N/A   Overcast
10:15 AM 30.2 °F 20.2 °F 24.8 °F 80% 30.05 in 10.0 mi West 12.7 mph 20.7 mph N/A   Overcast
10:35 AM 30.2 °F 18.9 °F 26.6 °F 86% 30.06 in 10.0 mi West 16.1 mph - N/A   Mostly Cloudy
10:55 AM 30.2 °F 19.3 °F 23.0 °F 75% 30.06 in 10.0 mi West 15.0 mph 21.9 mph N/A   Scattered Clouds
11:15 AM 30.2 °F 19.8 °F 23.0 °F 75% 30.05 in 10.0 mi WSW 13.8 mph - N/A   Scattered Clouds
11:35 AM 30.2 °F 19.3 °F 23.0 °F 75% 30.06 in 10.0 mi West 15.0 mph 20.7 mph N/A   Scattered Clouds
11:55 AM 30.2 °F 18.5 °F 23.0 °F 75% 30.05 in 10.0 mi West 17.3 mph - N/A   Scattered Clouds
12:15 PM 30.2 °F 20.2 °F 21.2 °F 69% 30.05 in 10.0 mi WNW 12.7 mph - N/A   Scattered Clouds
12:35 PM 30.2 °F 19.3 °F 21.2 °F 69% 30.06 in 10.0 mi West 15.0 mph 19.6 mph N/A   Clear
12:55 PM 30.2 °F 19.3 °F 21.2 °F 69% 30.07 in 10.0 mi West 15.0 mph - N/A   Clear
1:15 PM 30.2 °F 21.3 °F 21.2 °F 69% 30.06 in 10.0 mi WNW 10.4 mph - N/A   Clear
1:35 PM 30.2 °F 20.2 °F 21.2 °F 69% 30.07 in 10.0 mi West 12.7 mph - N/A   Clear
1:55 PM 28.4 °F 17.5 °F 21.2 °F 74% 30.09 in 10.0 mi West 13.8 mph 19.6 mph N/A   Scattered Clouds
2:15 PM 28.4 °F 18.0 °F 21.2 °F 74% 30.09 in 10.0 mi West 12.7 mph - N/A   Scattered Clouds
2:35 PM 28.4 °F 18.0 °F 19.4 °F 69% 30.10 in 10.0 mi West 12.7 mph - N/A   Clear
2:55 PM 28.4 °F 19.1 °F 19.4 °F 69% 30.12 in 10.0 mi West 10.4 mph - N/A   Clear
3:15 PM 28.4 °F 18.5 °F 21.2 °F 74% 30.13 in 10.0 mi West 11.5 mph - N/A   Clear
3:35 PM 28.4 °F 19.7 °F 21.2 °F 74% 30.13 in 10.0 mi West 9.2 mph 16.1 mph N/A   Clear
3:55 PM 28.4 °F 18.5 °F 19.4 °F 69% 30.13 in 10.0 mi West 11.5 mph - N/A   Clear
4:15 PM 28.4 °F 19.1 °F 19.4 °F 69% 30.11 in 10.0 mi West 10.4 mph - N/A   Scattered Clouds
4:35 PM 28.4 °F 19.7 °F 19.4 °F 69% 30.11 in 10.0 mi West 9.2 mph - N/A   Overcast
4:55 PM 28.4 °F 19.7 °F 19.4 °F 69% 30.14 in 10.0 mi West 9.2 mph - N/A   Overcast
5:15 PM 28.4 °F 18.5 °F 19.4 °F 69% 30.16 in 10.0 mi West 11.5 mph - N/A   Mostly Cloudy
5:35 PM 26.6 °F 16.8 °F 19.4 °F 74% 30.18 in 10.0 mi West 10.4 mph - N/A   Overcast
5:55 PM 26.6 °F 16.8 °F 19.4 °F 74% 30.18 in 10.0 mi West 10.4 mph - N/A   Overcast
6:15 PM 26.6 °F 17.5 °F 19.4 °F 74% 30.18 in 10.0 mi West 9.2 mph - N/A   Overcast
6:35 PM 26.6 °F 18.2 °F 19.4 °F 74% 30.17 in 10.0 mi West 8.1 mph - N/A   Overcast
6:55 PM 26.6 °F 16.8 °F 19.4 °F 74% 30.17 in 10.0 mi West 10.4 mph - N/A   Mostly Cloudy
7:15 PM 26.6 °F 15.7 °F 19.4 °F 74% 30.19 in 10.0 mi West 12.7 mph - N/A   Overcast
7:35 PM 26.6 °F 17.5 °F 19.4 °F 74% 30.21 in 10.0 mi West 9.2 mph - N/A   Overcast
7:55 PM 26.6 °F 16.2 °F 19.4 °F 74% 30.20 in 10.0 mi WNW 11.5 mph - N/A   Overcast
8:15 PM 26.6 °F 16.8 °F 19.4 °F 74% 30.20 in 10.0 mi WNW 10.4 mph - N/A   Overcast
8:35 PM 26.6 °F 17.5 °F 17.6 °F 69% 30.21 in 10.0 mi West 9.2 mph 17.3 mph N/A   Overcast
8:55 PM 26.6 °F 15.7 °F 17.6 °F 69% 30.20 in 10.0 mi WNW 12.7 mph - N/A   Overcast
9:15 PM 24.8 °F 14.0 °F 17.6 °F 74% 30.19 in 10.0 mi WNW 11.5 mph - N/A   Scattered Clouds
9:35 PM 24.8 °F 14.6 °F 17.6 °F 74% 30.20 in 10.0 mi WNW 10.4 mph - N/A   Clear
9:55 PM 26.6 °F 17.5 °F 17.6 °F 69% 30.20 in 10.0 mi WNW 9.2 mph - N/A   Clear
10:15 PM 26.6 °F 16.8 °F 17.6 °F 69% 30.22 in 10.0 mi NW 10.4 mph 17.3 mph N/A   Scattered Clouds
10:35 PM 24.8 °F 15.3 °F 17.6 °F 74% 30.22 in 10.0 mi WNW 9.2 mph - N/A   Mostly Cloudy
10:55 PM 24.8 °F 15.3 °F 17.6 °F 74% 30.24 in 10.0 mi WNW 9.2 mph - N/A   Mostly Cloudy
11:15 PM 24.8 °F 14.6 °F 17.6 °F 74% 30.23 in 10.0 mi WNW 10.4 mph - N/A   Mostly Cloudy
11:35 PM 24.8 °F 14.6 °F 17.6 °F 74% 30.22 in 10.0 mi NW 10.4 mph - N/A   Mostly Cloudy
11:55 PM 24.8 °F 14.6 °F 17.6 °F 74% 30.22 in 10.0 mi NW 10.4 mph - N/A   Scattered Clouds